Time,TemperatureF,DewpointF,PressureIn,WindDirection,WindDirectionDegrees,WindSpeedMPH,WindSpeedGustMPH,Humidity,HourlyPrecipIn,Conditions,Clouds,dailyrainin,SoftwareType,DateUTC
2013-03-30 00:02:00,34.0,-99.9,-100.00,North,2,0.0,3.0,-999,0.00,,,0.00,,2013-03-30 04:02:00,
2013-03-30 00:13:00,34.0,-99.9,-100.00,North,2,0.0,3.0,-999,0.00,,,0.00,,2013-03-30 04:13:00,
2013-03-30 00:23:00,33.0,-99.9,-100.00,North,1,0.0,0.0,-999,0.00,,,0.00,,2013-03-30 04:23:00,
2013-03-30 00:33:00,34.0,-99.9,-100.00,North,1,0.0,0.0,-999,0.00,,,0.00,,2013-03-30 04:33:00,
2013-03-30 00:43:00,34.0,-99.9,-100.00,North,1,0.0,0.0,-999,0.00,,,0.00,,2013-03-30 04:43:00,
2013-03-30 00:53:00,33.0,-99.9,-100.00,North,1,0.0,0.0,-999,0.00,,,0.00,,2013-03-30 04:53:00,
2013-03-30 01:03:00,33.0,-99.9,-100.00,North,2,0.0,0.0,-999,0.00,,,0.00,,2013-03-30 05:03:00,
2013-03-30 01:12:00,33.0,-99.9,-100.00,North,2,0.0,0.0,-999,0.00,,,0.00,,2013-03-30 05:12:00,
2013-03-30 01:22:00,33.0,-99.9,-100.00,North,1,0.0,0.0,-999,0.00,,,0.00,,2013-03-30 05:22:00,
2013-03-30 01:32:00,32.0,-99.9,-100.00,North,1,0.0,0.0,-999,0.00,,,0.00,,2013-03-30 05:32:00,
2013-03-30 01:42:00,32.0,-99.9,-100.00,North,1,0.0,0.0,-999,0.00,,,0.00,,2013-03-30 05:42:00,
2013-03-30 01:52:00,32.0,-99.9,-100.00,North,2,0.0,0.0,-999,0.00,,,0.00,,2013-03-30 05:52:00,
2013-03-30 02:02:00,31.0,-99.9,-100.00,North,1,0.0,0.0,-999,0.00,,,0.00,,2013-03-30 06:02:00,
2013-03-30 02:12:00,31.0,-99.9,-100.00,North,1,0.0,0.0,-999,0.00,,,0.00,,2013-03-30 06:12:00,
2013-03-30 02:23:00,31.0,-99.9,-100.00,North,2,0.0,0.0,-999,0.00,,,0.00,,2013-03-30 06:23:00,
2013-03-30 02:32:00,31.0,-99.9,-100.00,North,1,0.0,0.0,-999,0.00,,,0.00,,2013-03-30 06:32:00,
2013-03-30 02:42:00,31.0,-99.9,-100.00,North,1,0.0,0.0,-999,0.00,,,0.00,,2013-03-30 06:42:00,
2013-03-30 02:52:00,31.0,-99.9,-100.00,North,1,0.0,0.0,-999,0.00,,,0.00,,2013-03-30 06:52:00,
2013-03-30 03:02:00,31.0,-99.9,-100.00,North,1,0.0,3.0,-999,0.00,,,0.00,,2013-03-30 07:02:00,
2013-03-30 03:12:00,31.0,-99.9,-100.00,North,1,0.0,3.0,-999,0.00,,,0.00,,2013-03-30 07:12:00,
2013-03-30 03:22:00,31.0,-99.9,-100.00,North,1,0.0,0.0,-999,0.00,,,0.00,,2013-03-30 07:22:00,
2013-03-30 03:32:00,30.0,-99.9,-100.00,North,2,0.0,0.0,-999,0.00,,,0.00,,2013-03-30 07:32:00,
2013-03-30 03:42:00,30.0,-99.9,-100.00,North,2,0.0,0.0,-999,0.00,,,0.00,,2013-03-30 07:42:00,
2013-03-30 03:52:00,31.0,-99.9,-100.00,North,1,0.0,0.0,-999,0.00,,,0.00,,2013-03-30 07:52:00,
2013-03-30 04:02:00,31.0,-99.9,-100.00,North,2,0.0,0.0,-999,0.00,,,0.00,,2013-03-30 08:02:00,
2013-03-30 04:12:00,31.0,-99.9,-100.00,North,2,0.0,0.0,-999,0.00,,,0.00,,2013-03-30 08:12:00,
2013-03-30 04:22:00,31.0,-99.9,-100.00,North,2,0.0,0.0,-999,0.00,,,0.00,,2013-03-30 08:22:00,
2013-03-30 04:32:00,31.0,-99.9,-100.00,North,1,0.0,0.0,-999,0.00,,,0.00,,2013-03-30 08:32:00,
2013-03-30 04:42:00,31.0,-99.9,-100.00,North,1,0.0,0.0,-999,0.00,,,0.00,,2013-03-30 08:42:00,
2013-03-30 04:53:00,31.0,-99.9,-100.00,North,2,0.0,0.0,-999,0.00,,,0.00,,2013-03-30 08:53:00,
2013-03-30 05:03:00,31.0,-99.9,-100.00,North,2,0.0,0.0,-999,0.00,,,0.00,,2013-03-30 09:03:00,
2013-03-30 05:13:00,31.0,-99.9,-100.00,North,2,0.0,0.0,-999,0.00,,,0.00,,2013-03-30 09:13:00,
2013-03-30 05:23:00,31.0,-99.9,-100.00,North,2,0.0,0.0,-999,0.00,,,0.00,,2013-03-30 09:23:00,
2013-03-30 05:33:00,30.0,-99.9,-100.00,North,1,0.0,0.0,-999,0.00,,,0.00,,2013-03-30 09:33:00,
2013-03-30 05:43:00,30.0,-99.9,-100.00,North,1,0.0,0.0,-999,0.00,,,0.00,,2013-03-30 09:43:00,
2013-03-30 05:54:00,30.0,-99.9,-100.00,North,2,0.0,0.0,-999,0.00,,,0.00,,2013-03-30 09:54:00,
2013-03-30 06:03:00,30.0,-99.9,-100.00,North,1,0.0,0.0,-999,0.00,,,0.00,,2013-03-30 10:03:00,
2013-03-30 06:13:00,30.0,-99.9,-100.00,North,1,0.0,0.0,-999,0.00,,,0.00,,2013-03-30 10:13:00,
2013-03-30 06:23:00,30.0,-99.9,-100.00,North,1,0.0,0.0,-999,0.00,,,0.00,,2013-03-30 10:23:00,
2013-03-30 06:33:00,29.0,-99.9,-100.00,North,2,0.0,1.0,-999,0.00,,,0.00,,2013-03-30 10:33:00,
2013-03-30 06:42:00,29.0,-99.9,-100.00,North,2,0.0,1.0,-999,0.00,,,0.00,,2013-03-30 10:42:00,
2013-03-30 06:53:00,29.0,-99.9,-100.00,North,2,1.0,3.0,-999,0.00,,,0.00,,2013-03-30 10:53:00,
2013-03-30 07:04:00,29.0,-99.9,-100.00,North,2,0.0,3.0,-999,0.00,,,0.00,,2013-03-30 11:04:00,
2013-03-30 07:13:00,29.0,-99.9,-100.00,North,2,0.0,3.0,-999,0.00,,,0.00,,2013-03-30 11:13:00,
2013-03-30 07:23:00,29.0,-99.9,-100.00,North,1,0.0,2.0,-999,0.00,,,0.00,,2013-03-30 11:23:00,
2013-03-30 07:33:00,30.0,-99.9,-100.00,North,2,0.0,1.0,-999,0.00,,,0.00,,2013-03-30 11:33:00,
2013-03-30 07:43:00,30.0,-99.9,-100.00,North,2,0.0,1.0,-999,0.00,,,0.00,,2013-03-30 11:43:00,
2013-03-30 07:53:00,30.0,-99.9,-100.00,North,1,0.0,0.0,-999,0.00,,,0.00,,2013-03-30 11:53:00,
2013-03-30 08:03:00,33.0,-99.9,-100.00,North,1,0.0,3.0,-999,0.00,,,0.00,,2013-03-30 12:03:00,
2013-03-30 08:13:00,33.0,-99.9,-100.00,North,1,0.0,3.0,-999,0.00,,,0.00,,2013-03-30 12:13:00,
2013-03-30 08:23:00,36.0,-99.9,-100.00,North,1,2.0,3.0,-999,0.00,,,0.00,,2013-03-30 12:23:00,
2013-03-30 08:33:00,42.0,-99.9,-100.00,North,1,2.0,6.0,-999,0.00,,,0.00,,2013-03-30 12:33:00,
2013-03-30 08:43:00,42.0,-99.9,-100.00,North,1,2.0,6.0,-999,0.00,,,0.00,,2013-03-30 12:43:00,
2013-03-30 08:54:00,44.0,-99.9,-100.00,North,1,2.0,6.0,-999,0.00,,,0.00,,2013-03-30 12:54:00,
2013-03-30 09:03:00,51.0,-99.9,-100.00,North,1,2.0,7.0,-999,0.00,,,0.00,,2013-03-30 13:03:00,
2013-03-30 09:12:00,51.0,-99.9,-100.00,North,1,2.0,7.0,-999,0.00,,,0.00,,2013-03-30 13:12:00,
2013-03-30 09:23:00,52.0,-99.9,-100.00,North,1,3.0,7.0,-999,0.00,,,0.00,,2013-03-30 13:23:00,
2013-03-30 09:32:00,54.0,-99.9,-100.00,North,2,1.0,5.0,-999,0.00,,,0.00,,2013-03-30 13:32:00,
2013-03-30 09:43:00,54.0,-99.9,-100.00,North,2,1.0,5.0,-999,0.00,,,0.00,,2013-03-30 13:43:00,
2013-03-30 09:53:00,54.0,-99.9,-100.00,North,1,2.0,7.0,-999,0.00,,,0.00,,2013-03-30 13:53:00,
2013-03-30 10:03:00,54.0,-99.9,-100.00,North,2,1.0,7.0,-999,0.00,,,0.00,,2013-03-30 14:03:00,
2013-03-30 10:12:00,54.0,-99.9,-100.00,North,2,1.0,7.0,-999,0.00,,,0.00,,2013-03-30 14:12:00,
2013-03-30 10:23:00,55.0,-99.9,-100.00,North,1,2.0,3.0,-999,0.00,,,0.00,,2013-03-30 14:23:00,
2013-03-30 10:33:00,56.0,-99.9,-100.00,North,2,0.0,5.0,-999,0.00,,,0.00,,2013-03-30 14:33:00,
2013-03-30 10:43:00,56.0,-99.9,-100.00,North,2,0.0,5.0,-999,0.00,,,0.00,,2013-03-30 14:43:00,
2013-03-30 10:53:00,55.0,-99.9,-100.00,North,0,2.0,7.0,-999,0.00,,,0.00,,2013-03-30 14:53:00,
2013-03-30 11:03:00,58.0,-99.9,-100.00,North,1,2.0,6.0,-999,0.00,,,0.00,,2013-03-30 15:03:00,
2013-03-30 11:13:00,58.0,-99.9,-100.00,North,1,2.0,6.0,-999,0.00,,,0.00,,2013-03-30 15:13:00,
2013-03-30 11:23:00,58.0,-99.9,-100.00,North,6,5.0,9.0,-999,0.00,,,0.00,,2013-03-30 15:23:00,
2013-03-30 11:34:00,59.0,-99.9,-100.00,North,1,3.0,10.0,-999,0.00,,,0.00,,2013-03-30 15:34:00,
2013-03-30 11:43:00,59.0,-99.9,-100.00,North,1,3.0,10.0,-999,0.00,,,0.00,,2013-03-30 15:43:00,
2013-03-30 11:53:00,56.0,-99.9,-100.00,North,1,5.0,12.0,-999,0.00,,,0.00,,2013-03-30 15:53:00,
2013-03-30 12:04:00,60.0,-99.9,-100.00,North,1,7.0,16.0,-999,0.00,,,0.00,,2013-03-30 16:04:00,
2013-03-30 12:13:00,62.0,-99.9,-100.00,North,2,5.0,12.0,-999,0.00,,,0.00,,2013-03-30 16:13:00,
2013-03-30 12:23:00,62.0,-99.9,-100.00,North,2,5.0,12.0,-999,0.00,,,0.00,,2013-03-30 16:23:00,
2013-03-30 12:33:00,61.0,-99.9,-100.00,North,1,3.0,12.0,-999,0.00,,,0.00,,2013-03-30 16:33:00,
2013-03-30 12:43:00,61.0,-99.9,-100.00,North,1,3.0,12.0,-999,0.00,,,0.00,,2013-03-30 16:43:00,
2013-03-30 12:53:00,62.0,-99.9,-100.00,North,4,7.0,12.0,-999,0.00,,,0.00,,2013-03-30 16:53:00,
2013-03-30 13:03:00,62.0,-99.9,-100.00,North,1,5.0,12.0,-999,0.00,,,0.00,,2013-03-30 17:03:00,
2013-03-30 13:13:00,62.0,-99.9,-100.00,North,1,5.0,12.0,-999,0.00,,,0.00,,2013-03-30 17:13:00,
2013-03-30 13:23:00,61.0,-99.9,-100.00,North,1,2.0,12.0,-999,0.00,,,0.00,,2013-03-30 17:23:00,
2013-03-30 13:33:00,57.0,-99.9,-100.00,North,2,3.0,12.0,-999,0.00,,,0.00,,2013-03-30 17:33:00,
2013-03-30 13:43:00,57.0,-99.9,-100.00,North,2,3.0,12.0,-999,0.00,,,0.00,,2013-03-30 17:43:00,
2013-03-30 13:53:00,57.0,-99.9,-100.00,North,0,4.0,12.0,-999,0.00,,,0.00,,2013-03-30 17:53:00,
2013-03-30 14:03:00,59.0,-99.9,-100.00,North,2,5.0,10.0,-999,0.00,,,0.00,,2013-03-30 18:03:00,
2013-03-30 14:13:00,59.0,-99.9,-100.00,North,2,5.0,10.0,-999,0.00,,,0.00,,2013-03-30 18:13:00,
2013-03-30 14:22:00,57.0,-99.9,-100.00,North,1,7.0,13.0,-999,0.00,,,0.00,,2013-03-30 18:22:00,
2013-03-30 14:33:00,59.0,-99.9,-100.00,North,2,5.0,12.0,-999,0.00,,,0.00,,2013-03-30 18:33:00,
2013-03-30 14:43:00,59.0,-99.9,-100.00,North,2,5.0,12.0,-999,0.00,,,0.00,,2013-03-30 18:43:00,
2013-03-30 14:53:00,57.0,-99.9,-100.00,North,1,6.0,14.0,-999,0.00,,,0.00,,2013-03-30 18:53:00,
2013-03-30 15:03:00,57.0,-99.9,-100.00,North,3,7.0,17.0,-999,0.00,,,0.00,,2013-03-30 19:03:00,
2013-03-30 15:13:00,57.0,-99.9,-100.00,North,3,7.0,17.0,-999,0.00,,,0.00,,2013-03-30 19:13:00,
2013-03-30 15:22:00,59.0,-99.9,-100.00,North,1,6.0,14.0,-999,0.00,,,0.00,,2013-03-30 19:22:00,
2013-03-30 15:32:00,62.0,-99.9,-100.00,North,10,6.0,12.0,-999,0.00,,,0.00,,2013-03-30 19:32:00,
2013-03-30 15:43:00,62.0,-99.9,-100.00,North,10,6.0,12.0,-999,0.00,,,0.00,,2013-03-30 19:43:00,
2013-03-30 15:53:00,62.0,-99.9,-100.00,North,1,5.0,12.0,-999,0.00,,,0.00,,2013-03-30 19:53:00,
2013-03-30 16:02:00,63.0,-99.9,-100.00,North,1,6.0,13.0,-999,0.00,,,0.00,,2013-03-30 20:02:00,
2013-03-30 16:12:00,63.0,-99.9,-100.00,North,1,6.0,13.0,-999,0.00,,,0.00,,2013-03-30 20:12:00,
2013-03-30 16:22:00,63.0,-99.9,-100.00,North,1,4.0,13.0,-999,0.00,,,0.00,,2013-03-30 20:22:00,
2013-03-30 16:33:00,56.0,-99.9,-100.00,North,7,3.0,10.0,-999,0.00,,,0.00,,2013-03-30 20:33:00,
2013-03-30 16:43:00,56.0,-99.9,-100.00,North,7,3.0,10.0,-999,0.00,,,0.00,,2013-03-30 20:43:00,
2013-03-30 16:53:00,56.0,-99.9,-100.00,North,1,4.0,9.0,-999,0.00,,,0.00,,2013-03-30 20:53:00,
2013-03-30 17:03:00,55.0,-99.9,-100.00,North,3,4.0,13.0,-999,0.00,,,0.00,,2013-03-30 21:03:00,
2013-03-30 17:13:00,55.0,-99.9,-100.00,North,3,4.0,13.0,-999,0.00,,,0.00,,2013-03-30 21:13:00,
2013-03-30 17:23:00,57.0,-99.9,-100.00,North,4,3.0,13.0,-999,0.00,,,0.00,,2013-03-30 21:23:00,
2013-03-30 17:34:00,59.0,-99.9,-100.00,North,11,3.0,7.0,-999,0.00,,,0.00,,2013-03-30 21:34:00,
2013-03-30 17:43:00,59.0,-99.9,-100.00,North,11,3.0,7.0,-999,0.00,,,0.00,,2013-03-30 21:43:00,
2013-03-30 17:53:00,60.0,-99.9,-100.00,North,1,5.0,8.0,-999,0.00,,,0.00,,2013-03-30 21:53:00,
2013-03-30 18:03:00,55.0,-99.9,-100.00,North,3,5.0,10.0,-999,0.00,,,0.00,,2013-03-30 22:03:00,
2013-03-30 18:13:00,55.0,-99.9,-100.00,North,3,5.0,10.0,-999,0.00,,,0.00,,2013-03-30 22:13:00,
2013-03-30 18:24:00,57.0,-99.9,-100.00,NNE,27,3.0,10.0,-999,0.00,,,0.00,,2013-03-30 22:24:00,
2013-03-30 18:33:00,54.0,-99.9,-100.00,North,2,6.0,12.0,-999,0.00,,,0.00,,2013-03-30 22:33:00,
2013-03-30 18:44:00,54.0,-99.9,-100.00,North,2,6.0,12.0,-999,0.00,,,0.00,,2013-03-30 22:44:00,
2013-03-30 18:54:00,52.0,-99.9,-100.00,North,2,3.0,9.0,-999,0.00,,,0.00,,2013-03-30 22:54:00,
2013-03-30 19:03:00,51.0,-99.9,-100.00,North,1,4.0,9.0,-999,0.00,,,0.00,,2013-03-30 23:03:00,
2013-03-30 19:13:00,51.0,-99.9,-100.00,North,1,4.0,9.0,-999,0.00,,,0.00,,2013-03-30 23:13:00,
2013-03-30 19:23:00,49.0,-99.9,-100.00,North,1,3.0,7.0,-999,0.00,,,0.00,,2013-03-30 23:23:00,
2013-03-30 19:33:00,48.0,-99.9,-100.00,North,1,1.0,5.0,-999,0.00,,,0.00,,2013-03-30 23:33:00,
2013-03-30 19:43:00,48.0,-99.9,-100.00,North,1,1.0,5.0,-999,0.00,,,0.00,,2013-03-30 23:43:00,
2013-03-30 19:53:00,47.0,-99.9,-100.00,North,1,0.0,3.0,-999,0.00,,,0.00,,2013-03-30 23:53:00,
2013-03-30 20:03:00,44.0,-99.9,-100.00,North,1,0.0,0.0,-999,0.00,,,0.00,,2013-03-31 00:03:00,
2013-03-30 20:12:00,44.0,-99.9,-100.00,North,1,0.0,0.0,-999,0.00,,,0.00,,2013-03-31 00:12:00,
2013-03-30 20:23:00,43.0,-99.9,-100.00,North,2,0.0,0.0,-999,0.00,,,0.00,,2013-03-31 00:23:00,
2013-03-30 20:33:00,42.0,-99.9,-100.00,North,2,0.0,0.0,-999,0.00,,,0.00,,2013-03-31 00:33:00,
2013-03-30 20:43:00,42.0,-99.9,-100.00,North,2,0.0,0.0,-999,0.00,,,0.00,,2013-03-31 00:43:00,
2013-03-30 20:53:00,41.0,-99.9,-100.00,North,1,0.0,0.0,-999,0.00,,,0.00,,2013-03-31 00:53:00,
2013-03-30 21:02:00,39.0,-99.9,-100.00,North,1,0.0,0.0,-999,0.00,,,0.00,,2013-03-31 01:02:00,
2013-03-30 21:12:00,39.0,-99.9,-100.00,North,1,0.0,0.0,-999,0.00,,,0.00,,2013-03-31 01:12:00,
2013-03-30 21:23:00,39.0,-99.9,-100.00,North,2,0.0,0.0,-999,0.00,,,0.00,,2013-03-31 01:23:00,
2013-03-30 21:32:00,38.0,-99.9,-100.00,North,1,0.0,0.0,-999,0.00,,,0.00,,2013-03-31 01:32:00,
2013-03-30 21:43:00,38.0,-99.9,-100.00,North,1,0.0,0.0,-999,0.00,,,0.00,,2013-03-31 01:43:00,
2013-03-30 21:53:00,37.0,-99.9,-100.00,North,2,0.0,0.0,-999,0.00,,,0.00,,2013-03-31 01:53:00,
2013-03-30 22:02:00,37.0,-99.9,-100.00,North,1,0.0,0.0,-999,0.00,,,0.00,,2013-03-31 02:02:00,
2013-03-30 22:13:00,37.0,-99.9,-100.00,North,1,0.0,0.0,-999,0.00,,,0.00,,2013-03-31 02:13:00,
2013-03-30 22:22:00,36.0,-99.9,-100.00,North,2,0.0,0.0,-999,0.00,,,0.00,,2013-03-31 02:22:00,
2013-03-30 22:33:00,35.0,-99.9,-100.00,North,2,0.0,0.0,-999,0.00,,,0.00,,2013-03-31 02:33:00,
2013-03-30 22:43:00,35.0,-99.9,-100.00,North,2,0.0,0.0,-999,0.00,,,0.00,,2013-03-31 02:43:00,
2013-03-30 22:53:00,35.0,-99.9,-100.00,North,2,2.0,3.0,-999,0.00,,,0.00,,2013-03-31 02:53:00,
2013-03-30 23:02:00,35.0,-99.9,-100.00,North,1,0.0,0.0,-999,0.00,,,0.00,,2013-03-31 03:02:00,
2013-03-30 23:13:00,35.0,-99.9,-100.00,North,1,0.0,0.0,-999,0.00,,,0.00,,2013-03-31 03:13:00,
2013-03-30 23:22:00,34.0,-99.9,-100.00,North,1,0.0,0.0,-999,0.00,,,0.00,,2013-03-31 03:22:00,
2013-03-30 23:33:00,33.0,-99.9,-100.00,North,2,0.0,0.0,-999,0.00,,,0.00,,2013-03-31 03:33:00,
2013-03-30 23:44:00,33.0,-99.9,-100.00,North,2,0.0,0.0,-999,0.00,,,0.00,,2013-03-31 03:44:00,
2013-03-30 23:54:00,33.0,-99.9,-100.00,North,2,0.0,0.0,-999,0.00,,,0.00,,2013-03-31 03:54:00,